Weather History for Danville, KY

Change the Weather History Date:

Saturday, October 20, 2012

  Actual Average (KLEX) Record (KLEX)
Temperature  
Mean Temperature 48 °F 56 °F  
Max Temperature 55 °F 66 °F 86 °F (1963)
Min Temperature 42 °F 45 °F 25 °F (1972)
Degree Days  
Heating Degree Days 16 10  
Month to date heating degree days 145  
Since 1 July heating degree days 199  
Cooling Degree Days 0 0  
Month to date cooling degree days 23  
Year to date cooling degree days 1186  
Moisture  
Dew Point 41 °F    
Average Humidity 77    
Maximum Humidity 100    
Minimum Humidity 58    
Precipitation  
Precipitation 0.00 in 0.09 in 1.75 in (1993)
Month to date precipitation 1.96  
Year to date precipitation 36.54  
Snow  
Snow 0.00 in 0.00 in T in (1992)
Month to date snowfall 0.0  
Since 1 July snowfall 0.0  
Since 1 September snowfall 0.0  
Snow Depth -    
Sea Level Pressure  
Sea Level Pressure 29.91 in    
Wind  
Wind Speed 6 mph (WSW)    
Max Wind Speed 13 mph    
Max Gust Speed 20 mph    
Visibility 10 miles    
Events      
T = Trace of Precipitation, MM = Missing Value Source: NWS Daily Summary

Daily Weather History Graph

Daily Weather History Graph

Search for Another Location

Airport:

Trip Planner

Search our weather history database for the weather conditions in past years. The results will help you decide how hot, cold, wet, or windy it might be!

Date:

Astronomy

Oct. 20, 2012 Rise Set
Actual Time 7:52 AM EDT 6:54 PM EDT
Civil Twilight 7:25 AM EDT 7:20 PM EDT
Nautical Twilight 6:55 AM EDT 7:51 PM EDT
Astronomical Twilight 6:25 AM EDT 8:21 PM EDT
Moon 1:24 PM EDT (10/20) 11:42 PM EDT (10/20)
Length of Visible Light 11h 55m
Length of Day
11h 01m
Waxing Crescent, 34% of the Moon is Illuminated
Oct 20
Waxing Crescent
Oct 21
First Quarter
Oct 29
Full
Nov 6
Last Quarter
Nov 13
New

Hourly Weather History & Observations

Time (EDT) Temp. Windchill Dew Point Humidity Pressure Visibility Wind Dir Wind Speed Gust Speed Precip Events Conditions
12:15 AM 50.0 °F - 39.2 °F 66% 29.81 in 10.0 mi West 8.1 mph - N/A   Overcast
12:35 AM 50.0 °F - 39.2 °F 66% 29.81 in 10.0 mi West 8.1 mph - N/A   Overcast
12:55 AM 50.0 °F - 39.2 °F 66% 29.81 in 10.0 mi West 6.9 mph - N/A   Overcast
1:15 AM 48.2 °F - 39.2 °F 71% 29.81 in 10.0 mi West 5.8 mph - N/A   Overcast
1:35 AM 46.4 °F 45.2 °F 39.2 °F 76% 29.81 in 10.0 mi WSW 3.5 mph - N/A   Overcast
1:55 AM 48.2 °F - 41.0 °F 76% 29.81 in 10.0 mi WSW 4.6 mph - N/A   Overcast
2:15 AM 46.4 °F 45.2 °F 39.2 °F 76% 29.81 in 10.0 mi WSW 3.5 mph - N/A   Overcast
2:35 AM 46.4 °F 44.3 °F 39.2 °F 76% 29.82 in 10.0 mi WSW 4.6 mph - N/A   Mostly Cloudy
2:55 AM 46.4 °F 44.3 °F 39.2 °F 76% 29.82 in 10.0 mi WSW 4.6 mph - N/A   Scattered Clouds
3:15 AM 44.6 °F 42.2 °F 39.2 °F 81% 29.82 in 10.0 mi WSW 4.6 mph - N/A   Scattered Clouds
3:35 AM 44.6 °F 42.2 °F 39.2 °F 81% 29.82 in 10.0 mi SW 4.6 mph - N/A   Mostly Cloudy
3:55 AM 44.6 °F 43.1 °F 39.2 °F 81% 29.82 in 10.0 mi WSW 3.5 mph - N/A   Overcast
4:15 AM 44.6 °F 43.1 °F 41.0 °F 87% 29.83 in 10.0 mi SW 3.5 mph - N/A   Overcast
4:35 AM 44.6 °F 41.4 °F 41.0 °F 87% 29.83 in 10.0 mi SW 5.8 mph - N/A   Overcast
4:55 AM 46.4 °F 44.3 °F 41.0 °F 81% 29.83 in 10.0 mi WSW 4.6 mph - N/A   Overcast
5:15 AM 46.4 °F 45.2 °F 41.0 °F 81% 29.83 in 10.0 mi WSW 3.5 mph - N/A   Overcast
5:35 AM 46.4 °F 45.2 °F 41.0 °F 81% 29.84 in 10.0 mi WSW 3.5 mph - N/A   Overcast
5:55 AM 46.4 °F 44.3 °F 41.0 °F 81% 29.85 in 10.0 mi SW 4.6 mph - N/A   Overcast
6:15 AM 46.4 °F 43.5 °F 41.0 °F 81% 29.85 in 10.0 mi SW 5.8 mph - N/A   Overcast
6:35 AM 46.4 °F 44.3 °F 41.0 °F 81% 29.85 in 10.0 mi SW 4.6 mph - N/A   Overcast
6:55 AM 46.4 °F 43.5 °F 41.0 °F 81% 29.85 in 10.0 mi SW 5.8 mph - N/A   Overcast
7:15 AM 46.4 °F 44.3 °F 41.0 °F 81% 29.86 in 10.0 mi WSW 4.6 mph - N/A   Overcast
7:35 AM 46.4 °F 45.2 °F 41.0 °F 81% 29.86 in 10.0 mi WSW 3.5 mph - N/A   Overcast
7:55 AM 46.4 °F 45.2 °F 41.0 °F 81% 29.87 in 10.0 mi WSW 3.5 mph - N/A   Overcast
8:15 AM 46.4 °F 45.2 °F 41.0 °F 81% 29.87 in 10.0 mi SW 3.5 mph - N/A   Overcast
8:35 AM 46.4 °F 44.3 °F 41.0 °F 81% 29.88 in 10.0 mi SW 4.6 mph - N/A   Overcast
8:55 AM 46.4 °F 44.3 °F 41.0 °F 81% 29.88 in 10.0 mi SW 4.6 mph - N/A   Overcast
9:15 AM 46.4 °F 42.4 °F 41.0 °F 81% 29.89 in 10.0 mi SW 8.1 mph - N/A   Overcast
9:35 AM 48.2 °F - 42.8 °F 82% 29.89 in 10.0 mi SW 8.1 mph - N/A   Overcast
9:55 AM 50.0 °F - 42.8 °F 76% 29.90 in 10.0 mi SW 9.2 mph - N/A   Overcast
10:15 AM 50.0 °F - 42.8 °F 76% 29.90 in 10.0 mi SW 10.4 mph - N/A   Overcast
10:35 AM 51.8 °F - 42.8 °F 71% 29.90 in 10.0 mi SW 9.2 mph - N/A   Overcast
10:55 AM 51.8 °F - 42.8 °F 71% 29.91 in 10.0 mi WSW 8.1 mph - N/A   Overcast
11:15 AM 51.8 °F - 41.0 °F 67% 29.91 in 10.0 mi West 11.5 mph - N/A   Overcast
11:35 AM 53.6 °F - 42.8 °F 67% 29.92 in 10.0 mi West 10.4 mph 16.1 mph N/A   Mostly Cloudy
11:55 AM 55.4 °F - 41.0 °F 58% 29.92 in 10.0 mi West 12.7 mph - N/A   Mostly Cloudy
12:15 PM 53.6 °F - 41.0 °F 62% 29.93 in 10.0 mi West 6.9 mph - N/A   Overcast
12:35 PM 51.8 °F - 41.0 °F 67% 29.93 in 10.0 mi West 9.2 mph - N/A   Overcast
12:55 PM 51.8 °F - 41.0 °F 67% 29.94 in 10.0 mi West 9.2 mph - N/A   Overcast
1:15 PM 51.8 °F - 41.0 °F 67% 29.93 in 10.0 mi West 8.1 mph - N/A   Overcast
1:35 PM 51.8 °F - 41.0 °F 67% 29.93 in 10.0 mi West 9.2 mph 16.1 mph N/A   Overcast
1:55 PM 51.8 °F - 41.0 °F 67% 29.93 in 10.0 mi West 10.4 mph - N/A   Overcast
2:15 PM 53.6 °F - 41.0 °F 62% 29.93 in 10.0 mi West 10.4 mph 19.6 mph N/A   Overcast
2:35 PM 51.8 °F - 41.0 °F 67% 29.93 in 10.0 mi West 10.4 mph 16.1 mph N/A   Overcast
3:15 PM 51.8 °F - 41.0 °F 67% 29.93 in 10.0 mi WNW 9.2 mph - N/A   Overcast
3:35 PM 51.8 °F - 41.0 °F 67% 29.94 in 10.0 mi West 5.8 mph - N/A   Overcast
3:55 PM 51.8 °F - 41.0 °F 67% 29.94 in 10.0 mi West 8.1 mph - N/A   Overcast
4:15 PM 51.8 °F - 39.2 °F 62% 29.94 in 10.0 mi WNW 6.9 mph - N/A   Overcast
4:35 PM 51.8 °F - 41.0 °F 67% 29.94 in 10.0 mi West 6.9 mph - N/A   Overcast
5:15 PM 51.8 °F - 41.0 °F 67% 29.95 in 10.0 mi West 3.5 mph - N/A   Overcast
5:35 PM 51.8 °F - 41.0 °F 67% 29.95 in 10.0 mi WSW 3.5 mph - N/A   Overcast
5:55 PM 51.8 °F - 41.0 °F 67% 29.95 in 10.0 mi WSW 4.6 mph - N/A   Overcast
6:15 PM 51.8 °F - 41.0 °F 67% 29.95 in 10.0 mi West 3.5 mph - N/A   Overcast
6:35 PM 51.8 °F - 41.0 °F 67% 29.96 in 10.0 mi Calm Calm - N/A   Overcast
6:55 PM 50.0 °F - 42.8 °F 76% 29.97 in 10.0 mi Calm Calm - N/A   Overcast
7:15 PM 48.2 °F - 42.8 °F 82% 29.98 in 10.0 mi Calm Calm - N/A   Overcast
7:35 PM 50.0 °F - 42.8 °F 76% 29.98 in 10.0 mi Calm Calm - N/A   Overcast
7:55 PM 50.0 °F - 42.8 °F 76% 29.99 in 10.0 mi Calm Calm - N/A   Overcast
8:15 PM 48.2 °F - 42.8 °F 82% 29.99 in 10.0 mi Calm Calm - N/A   Mostly Cloudy
8:35 PM 46.4 °F - 42.8 °F 87% 29.99 in 10.0 mi Calm Calm - N/A   Mostly Cloudy
8:55 PM 44.6 °F - 42.8 °F 93% 29.99 in 10.0 mi Calm Calm - N/A   Mostly Cloudy
9:15 PM 44.6 °F - 42.8 °F 93% 30.00 in 10.0 mi Calm Calm - N/A   Overcast
9:35 PM 46.4 °F - 42.8 °F 87% 30.00 in 10.0 mi Calm Calm - N/A   Mostly Cloudy
9:55 PM 44.6 °F 43.1 °F 41.0 °F 87% 30.01 in 10.0 mi West 3.5 mph - N/A   Scattered Clouds
10:15 PM 44.6 °F - 42.8 °F 93% 30.01 in 10.0 mi Calm Calm - N/A   Scattered Clouds
10:35 PM 42.8 °F - 41.0 °F 93% 30.02 in 10.0 mi Calm Calm - N/A   Scattered Clouds
10:55 PM 42.8 °F - 41.0 °F 93% 30.02 in 10.0 mi Calm Calm - N/A   Mostly Cloudy
11:15 PM 42.8 °F - 41.0 °F 93% 30.02 in 10.0 mi Calm Calm - N/A   Overcast
11:35 PM 42.8 °F - 42.8 °F 100% 30.02 in 10.0 mi Calm Calm - N/A   Overcast
11:55 PM 42.8 °F - 41.0 °F 93% 30.03 in 10.0 mi Calm Calm - N/A   Mostly Cloudy